Date String (YYYY-MM-DD hh:mm:ss) UTC,Instrument flags,Ambient pressure (hPa),Sample flow (lpm),Bypass flow (lpm),Sample temperature (°C),Ambient temperature (°C),ASC tube jacket temperature (°C),LED temperature (°C),Box temperature (°C),Sample RH (%),Span deviation,Mass concentration (μg/m³),Mass concentration (μg/m³),Mass concentration (μg/m³)
DateTimeUTC,F1_M11,P_M11,Q1_M11,Q2_M11,T1_M11,T2_M11,T3_M11,T4_M11,T5_M11,U1_M11,ZSPAN_M11,X0_M11,X2_M11,X1_M11
2022-05-05 05:00:00,,0826.7,4.99,0.00,26.3,25.4,00.0,35.2,28.1,23.9,0000.0,0010.52,0005.24,0004.37
2022-05-05 05:01:00,,0826.6,5.00,0.00,26.3,25.4,00.0,35.2,28.1,23.8,0000.0,0010.49,0005.27,0004.43
2022-05-05 05:02:00,,0826.6,4.99,0.00,26.3,25.4,00.0,35.2,28.1,23.8,0000.0,0010.66,0005.33,0004.48
2022-05-05 05:03:00,,0826.6,5.00,0.00,26.3,25.3,00.0,35.2,28.1,23.8,0000.0,0010.65,0005.40,0004.53
2022-05-05 05:04:00,,0826.6,5.01,0.00,26.3,25.3,00.0,35.2,28.1,23.8,0000.0,0010.81,0005.47,0004.58
2022-05-05 05:05:00,,0826.6,4.99,0.00,26.3,25.3,00.0,35.2,28.1,23.8,0000.0,0010.70,0005.50,0004.63
2022-05-05 05:06:00,,0826.6,5.01,0.00,26.3,25.3,00.0,35.2,28.1,23.8,0000.0,0010.20,0005.55,0004.68
2022-05-05 05:07:00,,0826.6,4.99,0.00,26.3,25.3,00.0,35.2,28.1,23.8,0000.0,0010.22,0005.59,0004.71
2022-05-05 05:08:00,,0826.6,5.01,0.00,26.3,25.3,00.0,35.2,28.1,23.9,-002.0,0010.46,0005.66,0004.76
2022-05-05 05:09:00,,0826.6,4.99,0.00,26.3,25.3,00.0,35.2,28.1,24.4,-001.9,0011.14,0005.74,0004.82
2022-05-05 05:10:00,,0826.6,5.00,0.00,26.3,25.3,00.0,35.2,28.1,25.1,-001.7,0011.26,0005.77,0004.87
2022-05-05 05:11:00,,0826.6,5.00,0.00,26.2,25.3,00.0,35.2,28.1,24.1,-001.8,0011.24,0005.77,0004.85
2022-05-05 05:12:00,,0826.5,5.00,0.00,26.2,25.3,00.0,35.2,28.1,23.8,-001.9,0011.09,0005.67,0004.79
2022-05-05 05:13:00,,0826.6,5.00,0.00,26.2,25.3,00.0,35.2,28.0,23.7,-001.6,0010.90,0005.59,0004.72
2022-05-05 05:14:00,,0826.5,4.99,0.00,26.2,25.3,00.0,35.2,28.0,23.7,-002.0,0010.79,0005.53,0004.67
2022-05-05 05:15:00,,0826.5,5.00,0.00,26.2,25.3,00.0,35.2,28.0,23.6,-001.9,0010.50,0005.44,0004.61
2022-05-05 05:16:00,,0826.5,5.01,0.00,26.2,25.3,00.0,35.2,28.0,23.6,-002.5,0010.27,0005.36,0004.54
2022-05-05 05:17:00,,0826.5,4.99,0.00,26.2,25.3,00.0,35.2,28.0,23.6,-002.7,0010.20,0005.33,0004.49
2022-05-05 05:18:00,,0826.5,5.01,0.00,26.2,25.3,00.0,35.1,28.0,23.5,-000.7,0009.80,0005.26,0004.43
2022-05-05 05:19:00,,0826.5,4.99,0.00,26.2,25.3,00.0,35.1,28.1,23.5,0000.0,0010.31,0005.20,0004.36
2022-05-05 05:20:00,,0826.5,5.00,0.00,26.2,25.3,00.0,35.1,28.1,23.5,0000.0,0010.12,0005.09,0004.29
2022-05-05 05:21:00,,0826.5,5.01,0.00,26.2,25.3,00.0,35.1,28.1,23.5,0000.0,0010.06,0005.00,0004.26
2022-05-05 05:22:00,,0826.5,4.99,0.00,26.2,25.3,00.0,35.1,28.0,23.5,0000.0,0010.20,0005.03,0004.27
2022-05-05 05:23:00,,0826.5,5.01,0.00,26.2,25.3,00.0,35.1,28.1,23.5,0000.0,0010.29,0005.09,0004.29
2022-05-05 05:24:00,,0826.5,5.00,0.00,26.2,25.3,00.0,35.1,28.1,23.5,0000.0,0010.47,0005.18,0004.32
2022-05-05 05:25:00,,0826.5,5.01,0.00,26.2,25.4,00.0,35.1,28.1,23.4,0000.0,0010.52,0005.21,0004.34
2022-05-05 05:26:00,,0826.5,4.99,0.00,26.2,25.4,00.0,35.1,28.1,23.4,0000.0,0011.33,0005.24,0004.36
2022-05-05 05:27:00,,0826.4,5.02,0.00,26.3,25.4,00.0,35.2,28.1,23.4,0000.0,0011.96,0005.28,0004.40
2022-05-05 05:28:00,,0826.5,4.99,0.00,26.3,25.4,00.0,35.2,28.1,23.4,0000.0,0011.94,0005.28,0004.42
2022-05-05 05:29:00,,0826.4,5.01,0.00,26.3,25.4,00.0,35.2,28.1,23.3,0000.0,0011.85,0005.27,0004.45
2022-05-05 05:30:00,,0826.5,5.01,0.00,26.3,25.4,00.0,35.2,28.1,23.3,0000.0,0011.13,0005.26,0004.46
2022-05-05 05:31:00,,0826.4,4.99,0.00,26.3,25.4,00.0,35.2,28.1,23.3,0000.0,0010.53,0005.26,0004.46
2022-05-05 05:32:00,,0826.5,5.02,0.00,26.3,25.4,00.0,35.2,28.1,23.3,0000.0,0010.16,0005.26,0004.43
2022-05-05 05:33:00,,0826.4,4.99,0.00,26.3,25.4,00.0,35.2,28.1,23.3,0000.0,0010.12,0005.24,0004.40
2022-05-05 05:34:00,,0826.4,5.00,0.00,26.3,25.4,00.0,35.2,28.1,23.4,0000.0,0010.14,0005.22,0004.37
2022-05-05 05:35:00,,0826.4,5.00,0.00,26.3,25.4,00.0,35.2,28.1,23.5,0000.0,0010.38,0005.15,0004.35
2022-05-05 05:36:00,,0826.4,4.98,0.00,26.3,25.4,00.0,35.2,28.1,23.5,0000.0,0010.27,0005.11,0004.33
2022-05-05 05:37:00,,0826.4,5.02,0.00,26.3,25.4,00.0,35.2,28.1,23.5,0000.0,0009.69,0005.12,0004.33
2022-05-05 05:38:00,,0826.5,4.99,0.00,26.3,25.4,00.0,35.2,28.1,23.5,0000.0,0009.07,0005.17,0004.32
2022-05-05 05:39:00,,0826.5,5.01,0.00,26.3,25.4,00.0,35.2,28.1,23.5,0000.0,0009.82,0005.19,0004.33
2022-05-05 05:40:00,,0826.5,4.99,0.00,26.3,25.4,00.0,35.2,28.1,23.5,0000.0,0010.36,0005.24,0004.35
2022-05-05 05:41:00,,0826.5,5.01,0.00,26.3,25.4,00.0,35.2,28.1,23.5,0000.0,0010.34,0005.25,0004.38
2022-05-05 05:42:00,,0826.5,5.00,0.00,26.3,25.4,00.0,35.2,28.1,23.6,0000.0,0010.31,0005.27,0004.42
2022-05-05 05:43:00,,0826.5,5.01,0.00,26.3,25.4,00.0,35.2,28.1,23.6,0000.0,0010.39,0005.31,0004.44
2022-05-05 05:44:00,,0826.5,4.99,0.00,26.3,25.4,00.0,35.2,28.1,23.4,0000.0,0010.23,0005.24,0004.42
2022-05-05 05:45:00,,0826.5,5.02,0.00,26.3,25.4,00.0,35.2,28.1,23.4,0000.0,0010.06,0005.16,0004.38
2022-05-05 05:46:00,,0826.5,4.99,0.00,26.3,25.4,00.0,35.2,28.1,23.4,0000.0,0009.73,0005.14,0004.36
2022-05-05 05:47:00,,0826.6,5.01,0.00,26.3,25.4,00.0,35.2,28.1,23.5,0000.0,0009.72,0005.16,0004.35
2022-05-05 05:48:00,,0826.6,5.01,0.00,26.3,25.4,00.0,35.2,28.1,23.5,0000.0,0009.70,0005.13,0004.33
2022-05-05 05:49:00,,0826.5,4.99,0.00,26.3,25.4,00.0,35.2,28.1,23.6,0000.0,0009.59,0005.10,0004.34
2022-05-05 05:50:00,,0826.5,5.01,0.00,26.3,25.4,00.0,35.2,28.1,23.6,0000.0,0009.21,0005.17,0004.37
2022-05-05 05:51:00,,0826.5,5.01,0.00,26.3,25.4,00.0,35.2,28.1,23.7,0000.0,0008.71,0005.23,0004.40
2022-05-05 05:52:00,,0826.5,5.00,0.00,26.3,25.4,00.0,35.2,28.1,23.7,0000.0,0008.87,0005.29,0004.43
2022-05-05 05:53:00,,0826.5,4.99,0.00,26.3,25.4,00.0,35.2,28.1,23.7,0000.0,0008.99,0005.35,0004.46
2022-05-05 05:54:00,,0826.5,5.01,0.00,26.3,25.4,00.0,35.2,28.1,23.7,0000.0,0009.25,0005.40,0004.52
2022-05-05 05:55:00,,0826.5,4.99,0.00,26.3,25.4,00.0,35.2,28.1,23.7,0000.0,0009.65,0005.51,0004.60
2022-05-05 05:56:00,,0826.5,5.01,0.00,26.3,25.4,00.0,35.2,28.1,23.7,0000.0,0009.78,0005.56,0004.65
2022-05-05 05:57:00,,0826.5,4.99,0.00,26.3,25.4,00.0,35.2,28.1,23.6,0000.0,0010.06,0005.51,0004.63
2022-05-05 05:58:00,,0826.5,5.02,0.00,26.3,25.4,00.0,35.2,28.1,23.5,0000.0,0010.41,0005.44,0004.61
2022-05-05 05:59:00,,0826.5,4.99,0.00,26.3,25.4,00.0,35.2,28.1,23.5,0000.0,0010.33,0005.40,0004.58
